Location: Eferding
(48.3167°N, 14.0167°E)
Time: 08:16:43
(UTC+00:00)

Cosmos 2263 Rocket - Pass Details

Date: 12 November 2019
Orbit: 825 x 847 km, 71.0° (Epoch: 15 December)

Event Time Altitude Azimuth Distance (km) Brightness Sun altitude
Rises 16:23:43 0° 336° (NNW) 3,380 5.4 -9.2°
Reaches altitude 10° 16:28:56 10° 17° (NNE) 2,439 4.3 -10.1°
Maximum altitude 16:29:49 10° 26° (NNE) 2,414 4.2 -10.2°
Drops below altitude 10° 16:30:42 10° 35° (NE) 2,437 4.1 -10.3°
Enters shadow 16:31:39 - 45° (NE) 2,515 4.1 -10.5°
